Flight Track Log - Related Links

Times and Time Zones

All times are in EDT time to prevent confusion due to time zone crossing. See the N79JS flight status page for this flight to view local times or setup timezone preferences in your user account.

Time Position Orientation Groundspeed Altitude Reporting Facility
EDT Latitude Longitude Course Direction KTS MPH feet Rate Location/Type
Thu 05:59:46 PM 37.6586 -97.4197 58° Northeast 150 173 2,000  Level Kansas City Center
Thu 06:00:29 PM 37.6933 -97.4092 14° North 173 199 4,400 2,169 Climbing Kansas City Center
Thu 06:01:09 PM 37.7261 -97.3942 20° North 197 227 5,000 1,176 Climbing Kansas City Center
Thu 06:02:11 PM 37.7897 -97.3428 33° Northeast 259 298 6,400 2,419 Climbing Kansas City Center
Thu 06:03:13 PM 37.8292 -97.2608 59° Northeast 274 315 10,000 3,629 Climbing Kansas City Center
Thu 06:04:15 PM 37.8775 -97.1453 62° Northeast 307 353 13,900 2,903 Climbing Kansas City Center
Thu 06:05:00 PM 37.9004 -96.9160 58° Northeast  Level FlightAware Approximate
Thu 06:05:17 PM 37.9225 -97.0381 62° Northeast 341 392 16,000  Level Kansas City Center
Thu 06:06:19 PM 37.9722 -96.9200 62° Northeast 375 432 17,000 484 Climbing Kansas City Center
Thu 06:07:21 PM 38.0217 -96.8008 62° Northeast 381 438 17,000  Level Kansas City Center
Thu 06:08:24 PM 38.0703 -96.6817 63° Northeast 380 437 17,000  Level Kansas City Center
Thu 06:09:26 PM 38.1192 -96.5633 62° Northeast 379 436 17,000  Level Kansas City Center
Thu 06:10:28 PM 38.1772 -96.4208 63° Northeast 380 437 17,000  Level Kansas City Center
Thu 06:11:30 PM 38.2272 -96.3003 62° Northeast 374 430 17,000  Level Kansas City Center
Thu 06:13:34 PM 38.3436 -96.0681 57° Northeast 374 430 17,000  Level Kansas City Center
Thu 06:14:36 PM 38.4100 -95.9756 47° Northeast 371 427 17,000  Level Kansas City Center
Thu 06:15:38 PM 38.4872 -95.8644 48° Northeast 376 433 17,000  Level Kansas City Center
Thu 06:16:40 PM 38.5375 -95.7556 59° Northeast 369 425 17,000 -532 Level Kansas City Center
Thu 06:17:42 PM 38.5836 -95.6508 61° Northeast 356 410 15,900 -1,463 Descending Kansas City Center
Thu 06:18:43 PM 38.6342 -95.5353 61° Northeast 335 386 14,000 -1,707 Descending Kansas City Center
Thu 06:19:45 PM 38.6775 -95.4397 60° Northeast 327 376 12,400 -968 Descending Kansas City Center
Thu 06:20:47 PM 38.7272 -95.3208 62° Northeast 338 389 12,000 -194 Descending Kansas City Center
Thu 06:21:49 PM 38.7703 -95.2169 62° Northeast 344 396 12,000  Level Kansas City Center
Thu 06:22:52 PM 38.8217 -95.0967 61° Northeast 346 398 12,000 -720 Level Kansas City Center
Thu 06:23:54 PM 38.8619 -94.9986 62° Northeast 330 380 10,500 -1,597 Descending Kansas City Center
Thu 06:24:56 PM 38.9067 -94.8903 62° Northeast 310 357 8,700 -1,597 Descending Kansas City Center
Thu 06:25:58 PM 38.9422 -94.8047 62° Northeast 290 334 7,200 -1,597 Descending Kansas City Center
Thu 06:27:00 PM 38.9931 -94.7122 55° Northeast 282 325 5,400 -1,839 Descending Kansas City Center
Thu 06:28:02 PM 39.0389 -94.6519 46° Northeast 250 288 3,400 -1,839 Descending Kansas City Center
Thu 06:29:04 PM 39.0800 -94.6056 41° Northeast 169 194 1,600 -1,161 Descending Kansas City Center
Thu 06:30:06 PM 39.1136 -94.5956 13° North 125 144 1,000 -581 Descending Kansas City Center
Thu 06:32:00 PM 39.1167 -94.5833 46° Northeast  Level FlightAware Approximate

Login

Don't have an account? Register now (free) for customized features, flight alerts, and more!